| time (UTC) | temp C | wind direction | speed KPH | gust KPH | rain 1hr cm | rain 24hr cm | rain mn cm | humidity % | barometer mb |
| 20260507020052 | 8 | 317 | 0.0 | 3.2 | 0.00 | 0.71 | 0.71 | 85 | 1016.4 |
| 20260507014545 | 8 | 317 | 0.0 | 3.2 | 0.00 | 0.71 | 0.71 | 85 | 1016.5 |
| 20260507013044 | 8 | 317 | 0.0 | 3.2 | 0.00 | 0.71 | 0.71 | 85 | 1016.3 |
| 20260507011546 | 8 | 317 | 1.6 | 4.8 | 0.00 | 0.71 | 0.71 | 84 | 1016.4 |
| 20260507010054 | 8 | 317 | 1.6 | 8.0 | 0.00 | 0.71 | 0.71 | 84 | 1016.2 |
| 20260507004541 | 8 | 268 | 3.2 | 4.8 | 0.00 | 0.71 | 0.71 | 85 | 1015.9 |
| 20260507003040 | 8 | 268 | 3.2 | 6.4 | 0.00 | 0.71 | 0.71 | 85 | 1015.8 |
| 20260507001546 | 8 | 297 | 3.2 | 11.3 | 0.00 | 0.71 | 0.71 | 85 | 1015.5 |
| 20260507000037 | 8 | 290 | 6.4 | 11.3 | 0.00 | 0.71 | 0.71 | 85 | 1015.3 |
| 20260506234535 | 8 | 249 | 3.2 | 11.3 | 0.00 | 0.71 | 0.71 | 85 | 1015.2 |
| 20260506233038 | 8 | 244 | 6.4 | 11.3 | 0.00 | 0.71 | 0.71 | 85 | 1015.1 |
| 20260506231536 | 8 | 250 | 4.8 | 8.0 | 0.00 | 0.71 | 0.71 | 85 | 1015.1 |
| 20260506230031 | 8 | 244 | 4.8 | 8.0 | 0.00 | 0.71 | 0.71 | 85 | 1014.9 |
| 20260506224530 | 8 | 294 | 6.4 | 11.3 | 0.00 | 0.71 | 0.71 | 85 | 1014.9 |
| 20260506223027 | 8 | 318 | 3.2 | 16.1 | 0.00 | 0.71 | 0.71 | 86 | 1014.6 |
| 20260506221527 | 8 | 314 | 4.8 | 16.1 | 0.00 | 0.71 | 0.71 | 86 | 1014.5 |
| 20260506220026 | 8 | 321 | 9.7 | 17.7 | 0.00 | 0.71 | 0.71 | 86 | 1014.3 |
| 20260506214525 | 8 | 311 | 8.0 | 20.9 | 0.00 | 0.71 | 0.71 | 87 | 1014.4 |
| 20260506213022 | 9 | 305 | 14.5 | 19.3 | 0.00 | 0.71 | 0.71 | 87 | 1014.2 |
| 20260506211520 | 9 | 327 | 8.0 | 19.3 | 0.00 | 0.71 | 0.71 | 88 | 1013.9 |
| 20260506210018 | 9 | 313 | 6.4 | 16.1 | 0.00 | 0.71 | 0.71 | 88 | 1013.5 |
| 20260506204516 | 8 | 313 | 8.0 | 22.5 | 0.03 | 0.71 | 0.71 | 89 | 1013.2 |
| 20260506203015 | 9 | 292 | 11.3 | 19.3 | 0.03 | 0.71 | 0.71 | 89 | 1013.0 |
| 20260506201518 | 9 | 310 | 4.8 | 14.5 | 0.05 | 0.71 | 0.71 | 89 | 1012.4 |
| 20260506200015 | 9 | 319 | 4.8 | 14.5 | 0.05 | 0.76 | 0.71 | 89 | 1012.4 |
| 20260506194511 | 9 | 301 | 12.9 | 19.3 | 0.03 | 0.71 | 0.71 | 89 | 1012.3 |
| 20260506193008 | 10 | 290 | 6.4 | 12.9 | 0.03 | 0.71 | 0.71 | 89 | 1012.3 |
| 20260506191507 | 10 | 250 | 6.4 | 12.9 | 0.00 | 0.71 | 0.69 | 89 | 1012.0 |
| 20260506190006 | 10 | 310 | 3.2 | 9.7 | 0.00 | 0.71 | 0.69 | 88 | 1011.9 |
| 20260506184515 | 10 | 303 | 6.4 | 14.5 | 0.00 | 0.71 | 0.69 | 88 | 1011.7 |
| 20260506183002 | 10 | 293 | 9.7 | 16.1 | 0.00 | 0.71 | 0.69 | 88 | 1011.7 |
| 20260506181558 | 10 | 310 | 4.8 | 16.1 | 0.00 | 0.71 | 0.69 | 88 | 1011.3 |
| 20260506180057 | 11 | 313 | 11.3 | 16.1 | 0.00 | 0.71 | 0.69 | 87 | 1011.2 |
| 20260506174600 | 11 | 323 | 8.0 | 17.7 | 0.00 | 0.71 | 0.69 | 87 | 1010.7 |
| 20260506173117 | 12 | 308 | 9.7 | 19.3 | 0.00 | 0.71 | 0.69 | 87 | 1010.5 |
| 20260506171551 | 14 | 250 | 9.7 | 17.7 | 0.00 | 0.71 | 0.69 | 87 | 1010.3 |
| 20260506170049 | 15 | 267 | 6.4 | 16.1 | 0.00 | 0.71 | 0.69 | 86 | 1009.9 |
| 20260506164548 | 15 | 251 | 6.4 | 12.9 | 0.03 | 0.71 | 0.69 | 86 | 1010.2 |
| 20260506163052 | 15 | 231 | 6.4 | 16.1 | 0.03 | 0.71 | 0.69 | 86 | 1009.9 |
| 20260506161548 | 15 | 246 | 9.7 | 17.7 | 0.03 | 0.71 | 0.69 | 86 | 1009.9 |
| 20260506160047 | 15 | 244 | 8.0 | 17.7 | 0.05 | 0.71 | 0.69 | 86 | 1010.2 |
| 20260506154544 | 15 | 267 | 6.4 | 12.9 | 0.05 | 0.71 | 0.66 | 87 | 1010.1 |
| 20260506153044 | 15 | 239 | 6.4 | 14.5 | 0.08 | 0.71 | 0.66 | 87 | 1009.9 |
| 20260506151538 | 14 | 214 | 9.7 | 16.1 | 0.10 | 0.71 | 0.66 | 88 | 1010.3 |
| 20260506150045 | 14 | 200 | 3.2 | 9.7 | 0.08 | 0.69 | 0.64 | 89 | 1010.1 |
| 20260506144555 | 14 | 237 | 3.2 | 11.3 | 0.08 | 0.66 | 0.61 | 89 | 1010.1 |
| 20260506143039 | 14 | 142 | 1.6 | 4.8 | 0.08 | 0.64 | 0.58 | 89 | 1010.0 |
| 20260506141533 | 13 | 142 | 0.0 | 4.8 | 0.10 | 0.61 | 0.56 | 89 | 1010.2 |
| 20260506140043 | 13 | 142 | 1.6 | 4.8 | 0.18 | 0.61 | 0.56 | 89 | 1010.4 |
| 20260506134533 | 13 | 134 | 1.6 | 4.8 | 0.25 | 0.58 | 0.53 | 89 | 1010.4 |
| 20260506133028 | 12 | 188 | 1.6 | 6.4 | 0.30 | 0.56 | 0.51 | 89 | 1010.6 |
| 20260506131535 | 12 | 261 | 0.0 | 1.6 | 0.33 | 0.51 | 0.46 | 89 | 1010.9 |
| 20260506130026 | 12 | 261 | 1.6 | 3.2 | 0.28 | 0.43 | 0.38 | 88 | 1011.2 |
| 20260506124524 | 12 | 261 | 1.6 | 4.8 | 0.18 | 0.33 | 0.28 | 88 | 1011.2 |
| 20260506123035 | 12 | 261 | 0.0 | 3.2 | 0.13 | 0.25 | 0.20 | 88 | 1010.7 |
| 20260506121522 | 12 | 261 | 0.0 | 3.2 | 0.05 | 0.18 | 0.13 | 88 | 1010.7 |
| 20260506120030 | 12 | 261 | 0.0 | 1.6 | 0.03 | 0.20 | 0.10 | 88 | 1010.5 |
| 20260506114521 | 12 | 261 | 0.0 | 4.8 | 0.03 | 0.20 | 0.10 | 87 | 1011.0 |
| 20260506113020 | 12 | 256 | 0.0 | 3.2 | 0.03 | 0.18 | 0.08 | 87 | 1011.2 |
| 20260506111520 | 12 | 256 | 1.6 | 4.8 | 0.03 | 0.18 | 0.08 | 87 | 1011.3 |
| 20260506110020 | 12 | 256 | 0.0 | 1.6 | 0.03 | 0.18 | 0.08 | 87 | 1011.0 |
| 20260506104524 | 11 | 256 | 0.0 | 3.2 | 0.05 | 0.18 | 0.08 | 86 | 1010.8 |
| 20260506103019 | 11 | 256 | 0.0 | 1.6 | 0.03 | 0.15 | 0.05 | 86 | 1011.0 |
| 20260506101518 | 11 | 256 | 0.0 | 1.6 | 0.03 | 0.15 | 0.05 | 86 | 1010.7 |
| 20260506100020 | 11 | 256 | 0.0 | 1.6 | 0.03 | 0.15 | 0.05 | 86 | 1010.6 |
| 20260506094516 | 11 | 256 | 1.6 | 3.2 | 0.03 | 0.13 | 0.03 | 85 | 1010.7 |
| 20260506093020 | 11 | 256 | 0.0 | 3.2 | 0.03 | 0.13 | 0.03 | 84 | 1010.7 |
| 20260506091514 | 12 | 256 | 0.0 | 3.2 | 0.03 | 0.13 | 0.03 | 84 | 1010.8 |
| 20260506090013 | 12 | 256 | 0.0 | 3.2 | 0.03 | 0.13 | 0.03 | 83 | 1010.9 |
| 20260506084511 | 11 | 256 | 0.0 | 3.2 | 0.00 | 0.10 | 0.00 | 83 | 1011.2 |
| 20260506083012 | 11 | 256 | 1.6 | 9.7 | 0.00 | 0.10 | 0.00 | 83 | 1011.5 |
| 20260506081515 | 12 | 272 | 3.2 | 4.8 | 0.00 | 0.10 | 0.00 | 82 | 1011.5 |
| 20260506073006 | 12 | 44 | 0.0 | 4.8 | 0.00 | 0.10 | 0.00 | 82 | 1011.1 |
| 20260506071506 | 12 | 44 | 1.6 | 4.8 | 0.00 | 0.10 | 0.00 | 82 | 1011.2 |
| 20260506061602 | 12 | 44 | 0.0 | 3.2 | 0.00 | 0.10 | 0.00 | 81 | 1011.8 |
| 20260506044553 | 13 | 20 | 0.0 | 3.2 | 0.00 | 0.10 | 0.00 | 80 | 1012.9 |
| 20260506043049 | 13 | 20 | 0.0 | 3.2 | 0.00 | 0.10 | 0.00 | 79 | 1013.1 |
| 20260506041548 | 13 | 20 | 0.0 | 4.8 | 0.00 | 0.10 | 0.00 | 78 | 1012.8 |
| 20260506040045 | 13 | 20 | 0.0 | 3.2 | 0.00 | 0.10 | 0.00 | 77 | 1013.1 |
| 20260506034602 | 13 | 20 | 1.6 | 6.4 | 0.00 | 0.10 | 0.10 | 76 | 1013.2 |
| 20260506033043 | 13 | 58 | 0.0 | 6.4 | 0.00 | 0.10 | 0.10 | 76 | 1013.5 |
| 20260506031550 | 14 | 58 | 6.4 | 12.9 | 0.00 | 0.10 | 0.10 | 75 | 1013.4 |
| 20260506030039 | 14 | 31 | 1.6 | 6.4 | 0.00 | 0.10 | 0.10 | 74 | 1013.3 |
| 20260506024538 | 15 | 49 | 0.0 | 14.5 | 0.00 | 0.10 | 0.10 | 74 | 1013.3 |
| 20260506023034 | 15 | 46 | 8.0 | 17.7 | 0.00 | 0.10 | 0.10 | 77 | 1013.3 |
| 20260506021531 | 16 | 28 | 1.6 | 14.5 | 0.00 | 0.10 | 0.10 | 78 | 1012.8 |